Weather History for Deering, AK

Change the Weather History Date:

Saturday, July 6, 2013

  Actual Average (PAOT) Record (PAOT)
Temperature  
Mean Temperature 50 °F 54 °F  
Max Temperature 57 °F 59 °F 76 °F (1987)
Min Temperature 46 °F 48 °F 32 °F (1898)
Degree Days  
Heating Degree Days 14 11  
Month to date heating degree days 72  
Since 1 June heating degree days 653  
Since 1 July heating degree days 72  
Cooling Degree Days 0    
Month to date cooling degree days  
Year to date cooling degree days  
Since 1 June cooling degree days  
Moisture  
Dew Point 47 °F    
Average Humidity 87    
Maximum Humidity 93    
Minimum Humidity 77    
Precipitation  
Precipitation 0.04 in 0.04 in 0.34 in (1994)
Month to date precipitation 0.20  
Year to date precipitation 3.45  
Snow  
Snow 0.00 in 0.00 in 0.00 in (2013)
Month to date snowfall 0.0  
Since 1 June snowfall 0.0  
Since 1 July snowfall 0.0  
Snow Depth -    
Sea Level Pressure  
Sea Level Pressure 29.78 in    
Wind  
Wind Speed 6 mph (NNE)    
Max Wind Speed 10 mph    
Max Gust Speed -    
Visibility 10 miles    
Events Rain    
T = Trace of Precipitation, MM = Missing Value Source: NWS Daily Summary

Daily Weather History Graph

Daily Weather History Graph

Search for Another Location

Airport:

Trip Planner

Search our weather history database for the weather conditions in past years. The results will help you decide how hot, cold, wet, or windy it might be!

Date:

Astronomy

Jul. 06, 2013 Rise Set
Actual Time 3:43 AM AKDT 2:03 AM AKDT
Civil Twilight Sun does not rise Sun does not rise
Nautical Twilight Sun does not rise Sun does not rise
Astronomical Twilight Sun does not rise Sun does not rise
Moon 3:50 AM AKDT (7/6) 11:38 PM AKDT (7/6)
Length of Visible Light 24h 00m
Length of Day
22h 20m
Waning Crescent, 2% of the Moon is Illuminated
Jul 6
Waning Crescent
Jul 7
New
Jul 15
First Quarter
Jul 22
Full
Jul 29
Last Quarter

Hourly Weather History & Observations

Time (AKDT) Temp. Windchill Dew Point Humidity Pressure Visibility Wind Dir Wind Speed Gust Speed Precip Events Conditions
12:53 AM 48.9 °F - 46.0 °F 90% 29.87 in 10.0 mi East 5.8 mph - 0.00 in Rain Light Rain
1:53 AM 48.0 °F - 46.0 °F 93% 29.86 in 10.0 mi East 4.6 mph - 0.01 in Rain Light Rain
2:53 AM 48.9 °F - 46.0 °F 90% 29.86 in 10.0 mi ENE 3.5 mph - 0.01 in Rain Light Rain
3:40 AM 48.2 °F - 44.6 °F 87% 29.85 in 10.0 mi NE 4.6 mph - 0.00 in Rain Light Rain
3:50 AM 46.4 °F 44.3 °F 44.6 °F 93% 29.85 in 10.0 mi NE 4.6 mph - 0.00 in Rain Light Rain
3:53 AM 46.9 °F - 45.0 °F 93% 29.85 in 10.0 mi NE 4.6 mph - 0.00 in Rain Light Rain
4:53 AM 46.9 °F - 45.0 °F 93% 29.85 in 10.0 mi East 3.5 mph - 0.01 in Rain Light Rain
5:53 AM 48.0 °F - 45.0 °F 89% 29.84 in 10.0 mi East 3.5 mph - 0.01 in Rain Light Rain
6:53 AM 46.9 °F - 44.1 °F 90% 29.83 in 10.0 mi Calm Calm - 0.00 in   Overcast
8:53 AM 48.0 °F - 46.0 °F 93% 29.82 in 10.0 mi NE 5.8 mph - N/A   Overcast
9:53 AM 48.0 °F - 46.0 °F 93% 29.81 in 10.0 mi ENE 6.9 mph - N/A   Scattered Clouds
10:59 AM 48.2 °F - 46.4 °F 93% 29.80 in 2.5 mi NE 5.8 mph - N/A   Mostly Cloudy
11:14 AM 48.2 °F - 46.4 °F 93% 29.80 in 10.0 mi NE 4.6 mph - N/A   Overcast
11:53 AM 50.0 °F - 46.9 °F 89% 29.80 in 10.0 mi NE 8.1 mph - N/A   Overcast
12:53 PM 51.1 °F - 48.0 °F 89% 29.78 in 10.0 mi NNE 6.9 mph - N/A   Mostly Cloudy
1:53 PM 53.1 °F - 48.9 °F 86% 29.77 in 10.0 mi North 6.9 mph - 0.00 in   Overcast
2:53 PM 54.0 °F - 48.9 °F 83% 29.76 in 10.0 mi NNE 8.1 mph - N/A   Overcast
4:53 PM 53.1 °F - 48.0 °F 83% 29.74 in 10.0 mi NE 8.1 mph - N/A   Mostly Cloudy
5:53 PM 55.0 °F - 48.0 °F 77% 29.73 in 10.0 mi NNE 9.2 mph - N/A   Scattered Clouds
6:53 PM 55.0 °F - 48.9 °F 80% 29.72 in 10.0 mi NNE 6.9 mph - N/A   Clear
7:53 PM 54.0 °F - 48.9 °F 83% 29.71 in 10.0 mi NNW 8.1 mph - N/A   Partly Cloudy
8:53 PM 55.0 °F - 48.9 °F 80% 29.71 in 10.0 mi NNW 10.4 mph - N/A   Partly Cloudy
9:18 PM 55.4 °F - 50.0 °F 82% 29.71 in 10.0 mi NNW 9.2 mph - N/A   Mostly Cloudy
9:38 PM 53.6 °F - 48.2 °F 82% 29.71 in 10.0 mi NNW 9.2 mph - N/A   Mostly Cloudy
9:46 PM 53.6 °F - 48.2 °F 82% 29.71 in 10.0 mi NNW 10.4 mph - N/A   Mostly Cloudy
9:53 PM 54.0 °F - 48.0 °F 80% 29.72 in 10.0 mi North 10.4 mph - N/A   Mostly Cloudy
10:53 PM 53.1 °F - 48.0 °F 83% 29.72 in 10.0 mi NNW 6.9 mph - N/A   Mostly Cloudy
11:53 PM 52.0 °F - 48.0 °F 86% 29.71 in 10.0 mi NNW 4.6 mph - N/A   Overcast